Home > Weather > Jersey City > Past weeks

Flag for USA Past Weather in Jersey City, New Jersey, USA — Yesterday and Last 2 Weeks

Now
75 °F

Mostly cloudy.


Feels Like: 73 °F
Forecast: 74 / 82 °F
Wind: 6 mph from Southeast

Location: Newark International Airport

Current Time: Jul 31, 2016 at 3:36:00 AM

Latest Report: Jul 31, 2016 at 2:51 AM


Visibility: 9 mi

Pressure: 29.98 "Hg

Humidity: 94%

Dew Point: 73 °F

Location of Jersey CityLocation

Past Weather in Jersey City — Graph

°F

Jersey City Temperature Yesterday

Maximum temperature yesterday: 86 °F (at 1:51 PM)
Minimum temperature yesterday: 74 °F (at 4:51 AM)
Average temperature yesterday: 77 °F

High & Low Weather Summary for the Past Weeks

 TemperatureHumidityPressure
High97 °F (Jul 23, 2:51 PM)100% (Jul 29, 7:51 AM)30.23 "Hg (Jul 29, 7:51 AM)
Low66 °F (Jul 20, 5:51 AM)24% (Jul 24, 3:51 PM)29.78 "Hg (Jul 22, 6:51 PM)
Average82 °F60%29.97 "Hg
* Reported Jul 16 1:51 AM — Jul 31 1:51 AM, Jersey City, Weather by CustomWeather, © 2016

Note: Actual official high and low records may vary slightly from our data, if they occured in-between our weather recording intervals... More about our weather records

Advertising

Jersey City Weather History for the Previous 24 Hours

Scroll right to see more
 ConditionsComfort  
Time TempWeatherWind HumidityBarometerVisibility
1:51 AM
Sun, Jul 31
75 °FMostly cloudy.7 mph94%29.98 "Hg9 mi
12:51 AM76 °FLight rain. Mostly cloudy.3 mph91%30.01 "Hg9 mi
11:51 PM
Sat, Jul 30
75 °FLight rain. Mostly cloudy.8 mph94%30.02 "Hg9 mi
10:51 PM75 °FOvercast.6 mph94%30.02 "Hg9 mi
9:51 PM74 °FLight rain. Mostly cloudy.5 mph97%30.04 "Hg8 mi
8:51 PM74 °FLight rain. Fog.3 mph97%30.03 "Hg6 mi
7:51 PM76 °FLight rain. More clouds than sun.3 mph91%30.03 "Hg9 mi
6:51 PM76 °FLight rain. Fog.3 mph91%30.02 "Hg5 mi
5:51 PM75 °FHeavy rain. Fog.5 mph94%30.01 "Hg3 mi
4:51 PM77 °FLight rain. Cloudy.5 mph88%30.00 "Hg8 mi
3:51 PM77 °FRain. Fog.8 mph90%29.99 "Hg4 mi
2:51 PM80 °FLight rain. Broken clouds.14 mph76%29.97 "Hg7 mi
1:51 PM86 °FBroken clouds.9 mph59%29.98 "Hg7 mi
12:51 PM83 °FLight rain. Partly sunny.7 mph65%30.00 "Hg7 mi
11:51 AM84 °FBroken clouds.5 mph65%29.99 "Hg7 mi
10:51 AM83 °FBroken clouds.3 mph68%30.00 "Hg8 mi
9:51 AM80 °FBroken clouds.5 mph74%29.99 "Hg8 mi
8:51 AM79 °FBroken clouds.7 mph77%30.00 "Hg10 mi
7:51 AM77 °FPartly sunny.8 mph79%29.99 "Hg10 mi
6:51 AM76 °FPartly cloudy.5 mph77%29.97 "Hg10 mi
5:51 AM74 °FPartly cloudy.6 mph85%29.95 "Hg10 mi
4:51 AM74 °FPassing clouds.7 mph88%29.94 "Hg10 mi
3:51 AM75 °FPassing clouds.6 mph82%29.94 "Hg10 mi
Weather by CustomWeather, © 2016

See weather overviewHow to use our weather pages